GFSSW_925_spd_255.txt.gz
Wind_Speed
19 18 19 19 19 18 19 19 18 19 18 18 17 16 15 17 20 17 9 17 8 11 16 18 17 18 17 6 8 6 3 8 13 7 3 14 7 4 6 10 7 10 19 16 25
21 21 20 20 20 19 20 19 19 20 19 19 18 16 14 16 19 16 29 20 19 11 8 10 10 12 5 7 4 4 3 8 12 14 5 10 7 9 4 16 14 16 14 21 12
23 23 22 21 21 21 21 21 20 21 20 19 17 16 12 12 5 8 6 16 22 22 17 17 21 8 8 7 8 9 7 10 18 11 7 16 20 15 18 18 13 15 11 16 26
25 25 24 23 22 22 23 22 22 22 21 19 17 14 10 5 2 2 2 10 17 16 12 9 8 6 5 8 10 6 12 12 13 10 7 14 15 9 17 12 5 9 13 16 15
26 26 25 24 24 24 23 24 24 24 22 17 14 10 4 3 10 12 6 8 12 12 13 9 7 7 8 7 8 7 9 10 11 7 11 14 5 10 16 16 12 12 11 14 13
28 28 27 26 26 26 26 27 25 25 20 14 11 5 0 6 7 13 10 11 10 12 14 15 10 10 9 9 6 9 11 11 8 5 11 16 9 8 9 11 16 14 10 12 16
29 29 28 29 27 28 28 29 26 23 15 11 6 2 5 17 2 8 11 9 14 14 10 24 26 6 7 10 12 10 5 7 7 4 5 25 11 10 15 19 18 14 11 10 11
31 31 31 30 30 29 32 30 26 16 9 6 4 3 7 17 18 22 19 13 13 15 25 24 23 7 3 9 10 9 2 3 8 7 8 10 8 20 18 16 14 15 11 11 14
32 32 34 33 32 31 34 29 18 6 4 3 4 3 9 12 12 20 21 15 23 23 19 19 8 3 8 6 7 5 4 7 10 10 7 7 11 19 18 17 16 15 13 13 13
33 35 37 34 32 33 33 23 8 2 2 1 8 4 8 7 14 16 15 17 5 5 7 4 1 3 6 1 6 7 8 10 11 9 9 8 13 20 19 19 17 15 14 15 13
35 36 38 36 31 34 27 6 3 1 6 8 7 7 14 19 13 12 17 13 7 5 6 7 3 7 13 12 14 9 6 11 9 9 9 5 12 19 19 16 17 16 17 16 15
35 37 38 36 33 22 10 3 11 12 11 13 21 22 33 29 16 12 23 8 6 7 8 6 8 12 13 14 15 13 12 14 5 15 8 8 11 13 10 9 18 17 16 17 16
36 39 39 36 27 7 10 21 18 15 5 14 21 19 18 14 16 13 11 9 8 9 11 9 11 16 16 14 13 10 9 8 7 6 5 7 4 7 7 5 5 9 14 19 20
36 39 39 36 6 19 11 21 20 18 3 7 8 6 17 11 15 12 20 10 8 11 12 9 14 17 13 12 9 9 8 12 3 5 6 6 5 9 7 5 5 5 12 17 19
39 39 36 17 13 8 12 19 22 7 4 5 8 10 10 12 3 14 16 10 11 13 9 13 13 11 14 6 6 7 8 8 8 4 5 2 3 5 11 0 6 10 17 20 19
42 35 34 5 8 13 20 22 18 1 6 5 4 7 8 12 19 17 10 8 11 13 15 15 16 8 8 11 9 8 7 8 6 5 2 10 5 2 8 15 18 32 13 21 18
42 34 23 8 5 13 14 9 2 3 8 6 3 4 10 10 16 16 13 11 8 6 10 15 17 12 15 7 5 6 4 2 3 2 5 3 3 3 3 18 20 22 12 18 18
41 26 9 11 7 7 8 3 2 9 13 20 18 23 10 11 11 17 14 11 10 9 6 10 12 15 13 7 11 9 9 6 6 2 3 4 4 2 12 9 6 12 9 12 11
39 21 8 10 3 2 2 1 4 4 8 17 25 17 19 13 8 13 16 15 12 12 10 4 10 13 15 8 6 9 9 9 2 2 4 4 4 7 5 11 12 9 17 20 17
27 12 10 8 3 4 1 5 5 13 21 17 17 17 20 18 11 21 7 17 14 13 12 10 10 20 15 9 9 6 5 2 3 4 5 3 4 5 8 11 10 16 20 19 15
6 4 3 4 4 1 2 5 12 17 17 17 17 17 18 17 11 12 9 18 14 14 13 15 8 20 5 1 8 5 2 2 4 4 5 4 4 8 12 7 13 19 21 20 15
12 3 11 7 1 3 5 7 11 15 18 16 16 13 12 10 11 12 15 11 18 13 16 11 7 7 11 12 7 7 6 7 6 4 2 5 5 4 11 11 9 20 20 18 19
6 4 11 12 3 4 9 14 16 12 11 10 8 20 11 11 8 8 14 20 8 11 19 7 5 4 2 6 8 6 6 2 6 4 4 5 4 4 4 5 6 22 19 17 18
3 4 4 4 3 6 8 6 12 15 7 5 10 24 14 12 13 10 14 19 7 15 17 13 7 10 11 8 7 4 5 1 5 5 6 6 6 5 5 4 6 11 20 18 16
2 3 4 4 7 14 11 10 14 15 7 9 6 12 9 7 14 10 15 14 13 10 14 4 5 6 7 11 7 8 7 6 3 2 5 5 9 8 5 5 5 14 18 18 13
4 4 5 8 9 11 9 7 14 13 11 9 4 11 9 6 8 17 7 5 6 4 3 7 6 6 6 8 9 8 10 8 7 5 3 8 6 6 8 3 1 8 19 16 19
11 12 3 7 7 7 7 14 17 14 8 15 12 3 8 13 10 17 9 8 13 19 3 2 3 7 5 5 5 14 12 12 8 8 9 5 9 11 5 4 4 4 14 17 20

GFSSW_925_spd_258.txt.gz
Wind_Speed
19 17 17 17 17 17 17 18 18 18 18 18 18 18 18 18 20 18 10 19 7 5 10 13 10 11 3 2 4 3 3 4 5 6 7 16 7 4 8 14 11 6 11 17 33
20 19 19 18 18 18 19 19 19 19 19 19 18 17 17 16 19 17 24 23 15 9 5 3 5 8 4 3 1 5 4 6 8 7 12 16 8 12 9 16 8 20 9 27 32
22 21 20 20 20 20 20 20 20 21 20 20 18 15 13 12 6 8 9 5 15 16 12 9 7 2 2 2 3 3 6 8 9 4 21 13 9 4 17 12 23 22 16 20 24
23 22 22 22 22 22 22 21 22 22 22 20 17 12 8 3 4 3 5 1 12 14 10 4 1 2 2 3 3 2 8 6 11 12 13 21 9 6 6 9 18 16 20 19 18
24 24 23 24 24 24 25 24 25 23 23 19 14 7 1 0 10 13 8 4 13 15 13 6 5 5 4 3 3 6 8 7 12 13 18 19 7 4 3 10 15 17 18 18 15
26 26 26 28 27 26 27 27 26 25 22 15 10 2 3 4 9 9 12 9 9 17 10 8 8 7 5 4 4 5 6 10 4 15 18 15 9 8 5 9 16 15 16 16 16
27 28 29 31 29 29 28 30 28 23 16 10 5 4 2 15 4 3 6 7 12 16 6 20 8 2 2 10 5 4 5 9 9 15 8 17 2 7 17 9 15 14 14 14 15
29 30 31 33 31 30 31 31 26 15 8 4 4 5 7 11 11 19 11 19 13 14 16 15 12 6 6 5 8 5 2 1 4 12 16 9 7 16 18 18 16 16 13 14 11
30 32 32 32 33 31 34 30 17 2 2 4 6 3 9 14 7 16 17 16 19 15 19 16 6 3 6 4 6 6 4 3 7 7 9 1 6 13 13 14 16 15 15 15 13
33 34 34 33 33 33 30 17 5 3 3 3 2 2 7 4 6 13 12 21 5 4 7 1 5 2 4 5 5 5 3 4 6 6 7 7 8 21 15 20 18 16 16 17 15
35 36 35 33 32 29 20 3 5 3 2 6 6 6 9 6 12 8 15 8 4 4 5 4 2 6 10 7 8 5 5 8 7 8 8 9 13 23 17 17 15 15 14 12 13
36 38 36 34 32 13 7 3 6 7 10 16 19 19 28 4 5 10 13 6 5 5 2 3 6 13 7 7 6 6 8 13 9 13 8 15 15 20 19 19 19 18 15 18 14
38 40 36 34 18 4 16 9 24 25 4 9 8 7 8 12 11 14 9 7 6 4 5 7 11 9 10 9 8 10 7 10 9 3 7 11 5 11 9 1 6 10 10 10 17
39 40 35 34 3 17 9 22 23 18 4 7 4 6 8 6 5 11 17 10 3 10 6 7 15 13 9 8 8 8 9 9 8 5 4 6 8 7 8 5 11 17 20 21 22
42 39 35 13 13 6 13 22 21 3 3 5 2 5 6 9 3 5 14 3 10 8 5 9 6 5 6 13 13 14 10 7 5 5 3 1 5 4 9 9 10 18 20 18 18
43 38 28 5 9 6 18 20 4 5 4 5 6 10 5 4 4 3 4 3 6 7 5 13 6 5 9 12 6 9 4 5 4 4 2 5 5 3 7 17 9 14 14 17 16
44 32 14 6 4 10 15 5 5 3 6 5 11 16 9 5 7 4 4 5 7 4 6 6 13 5 6 8 7 3 6 3 4 3 5 4 4 6 14 10 16 18 15 20 18
41 21 7 7 5 8 8 5 2 4 6 7 12 12 4 14 7 7 4 8 5 4 4 6 9 4 5 7 8 8 9 6 7 4 5 4 6 4 8 1 7 9 10 18 16
37 14 3 1 2 2 5 4 5 3 5 9 12 6 3 15 7 7 2 4 6 11 10 5 13 11 9 5 7 6 3 8 6 1 2 2 1 3 6 7 7 10 16 19 18
19 12 6 5 6 4 5 4 4 3 8 10 5 4 12 11 8 8 4 4 6 3 6 10 9 17 17 2 8 8 6 2 3 6 5 2 2 4 5 9 13 15 19 19 17
6 4 2 6 7 5 3 5 4 9 7 4 4 5 5 7 5 4 4 9 1 8 6 4 2 18 3 5 8 4 2 4 4 5 6 3 5 7 11 10 17 19 19 21 20
7 3 4 6 4 1 1 5 6 10 6 5 4 3 3 6 5 4 4 4 8 1 5 3 4 9 15 9 7 6 6 7 6 5 2 5 5 4 10 12 14 17 19 21 23
3 3 8 3 2 4 6 5 4 6 6 4 3 4 3 3 6 9 9 14 23 13 7 6 3 5 9 6 1 3 5 4 5 4 6 7 5 3 3 7 8 19 18 20 18
2 4 4 5 3 3 5 5 7 7 7 1 4 4 4 4 2 4 11 7 13 4 8 4 1 5 10 11 6 4 4 5 5 4 5 5 5 5 7 9 11 15 20 22 19
3 1 1 4 3 5 2 3 7 10 7 11 4 4 1 5 7 5 3 7 12 10 7 7 2 6 18 15 9 9 6 8 4 6 6 5 7 7 7 7 15 17 18 18 19
3 3 4 3 4 6 5 6 9 11 4 7 4 5 3 1 3 14 4 3 6 5 5 4 5 10 18 14 16 9 11 9 7 5 4 8 4 8 4 7 10 15 19 20 21
8 6 3 4 5 3 3 7 8 8 5 6 8 4 1 1 12 16 17 9 7 3 2 2 3 4 8 15 18 9 8 7 5 6 9 5 8 8 6 7 8 14 19 21 22

GFSSW_925_spd_261.txt.gz
Wind_Speed
19 19 20 20 20 20 21 21 20 19 20 20 20 19 19 19 19 16 8 19 7 6 16 13 1 2 3 2 3 4 4 4 7 7 5 4 6 3 2 3 8 9 6 12 29
21 20 20 21 22 22 22 22 21 21 23 21 20 19 17 17 17 13 13 13 13 9 5 4 3 3 2 2 1 4 4 10 8 7 8 10 7 8 5 9 7 8 17 28 30
21 21 21 22 23 23 23 23 23 24 24 22 21 17 13 11 5 7 9 11 11 13 7 2 2 2 2 2 2 4 6 8 6 9 16 16 6 5 5 13 10 20 18 21 25
22 22 23 24 24 25 24 25 23 25 25 23 19 13 7 4 3 1 7 7 11 16 7 2 3 4 3 3 2 1 7 5 6 6 9 14 8 5 10 4 10 19 22 19 17
21 23 25 26 26 26 25 25 24 26 25 21 15 6 2 2 9 8 12 4 13 14 8 4 4 4 2 3 3 5 4 7 8 13 10 14 10 5 3 9 17 16 16 17 14
22 25 26 27 27 27 27 26 27 26 22 16 9 2 2 3 5 9 6 5 10 16 7 8 6 6 2 2 2 3 4 1 8 8 8 13 6 6 6 15 17 15 13 12 13
24 27 28 28 28 29 28 29 28 23 16 9 3 5 1 14 1 6 3 3 7 14 5 9 8 3 2 6 4 3 5 5 1 7 6 13 2 6 7 15 17 15 13 12 10
27 28 30 30 30 30 30 29 23 14 5 2 5 4 7 6 4 15 15 18 15 11 15 4 12 2 3 3 7 4 4 3 3 6 6 5 15 7 12 18 17 15 13 12 12
30 31 32 32 32 32 29 20 7 6 4 8 6 2 9 7 9 12 17 11 8 9 12 5 4 4 4 3 5 6 2 2 1 5 6 3 4 9 12 14 15 14 12 12 10
32 34 35 31 31 31 21 4 5 4 6 2 1 2 7 2 3 5 13 17 5 2 1 3 4 2 4 5 3 2 3 2 4 8 9 13 7 11 17 17 17 13 12 11 12
36 37 35 32 33 20 16 1 4 3 3 6 7 6 10 13 15 1 5 8 2 4 3 2 4 4 7 6 5 1 2 3 5 8 6 16 10 20 21 13 10 8 8 7 7
39 40 35 32 26 7 11 4 4 6 10 11 19 15 25 6 6 8 2 5 6 7 2 5 5 10 5 3 4 3 3 8 9 4 9 4 7 19 16 11 16 18 12 14 14
40 41 37 31 11 5 9 1 14 11 3 8 5 4 6 12 9 9 6 4 4 5 4 6 8 3 4 5 4 4 4 6 8 5 5 9 4 9 3 5 14 17 20 21 22
42 40 38 28 2 13 6 16 21 0 5 7 6 5 2 4 5 11 11 6 1 9 6 5 6 7 4 6 6 5 7 10 8 3 5 3 3 5 10 11 13 16 16 19 11
43 40 33 15 10 4 9 20 16 3 4 11 6 2 2 3 7 3 7 5 8 7 7 9 2 1 4 7 6 11 6 10 7 5 3 2 5 3 10 7 16 19 15 13 15
41 39 25 7 7 6 17 19 2 5 2 8 3 9 4 3 5 6 2 4 5 4 2 8 1 4 7 5 7 7 6 6 6 3 1 7 6 4 10 20 18 13 14 13 14
39 32 12 4 3 11 15 3 5 4 5 7 6 9 5 8 8 1 2 1 5 2 5 3 7 3 5 6 1 3 5 3 2 2 5 2 4 7 18 5 17 23 19 15 16
40 20 6 5 7 11 6 5 4 1 2 4 7 9 3 10 7 8 7 2 1 1 2 4 9 7 4 8 7 6 8 5 7 4 6 1 5 5 4 5 11 14 14 15 16
38 13 3 3 4 6 5 5 5 2 3 6 8 4 5 7 3 8 5 1 3 4 5 4 8 10 4 7 6 4 4 4 5 2 3 3 4 4 4 6 7 13 15 18 18
22 13 6 5 0 7 5 2 2 3 6 3 4 3 4 6 8 6 4 1 6 4 4 3 6 8 12 3 5 7 5 2 3 4 4 4 3 5 5 9 9 11 15 16 16
8 4 10 7 3 5 3 4 3 4 6 4 3 4 3 3 3 4 3 3 12 6 3 4 2 8 4 5 9 2 2 1 4 5 6 4 6 8 14 14 16 16 17 20 19
6 2 15 6 4 2 1 4 5 5 3 3 2 3 2 4 3 3 4 4 14 10 2 2 2 5 8 8 5 4 6 7 5 5 2 4 6 5 11 14 16 15 16 17 18
3 3 9 7 3 2 5 5 4 6 6 4 4 4 2 2 5 4 5 6 11 5 5 4 2 4 13 8 8 5 5 4 4 3 6 6 6 3 6 9 14 15 14 14 15
2 4 4 5 3 3 4 4 6 8 3 4 2 2 2 1 3 4 4 4 9 6 5 1 1 5 5 5 6 12 23 4 6 4 4 6 4 5 7 10 9 12 13 16 17
4 0 2 3 3 3 2 4 3 6 5 8 3 3 2 3 3 1 3 6 5 1 4 3 4 5 8 9 12 19 24 21 7 6 6 6 10 9 9 10 11 11 12 14 16
2 3 4 0 3 3 4 4 5 5 3 5 3 9 4 3 2 6 4 4 6 3 3 1 4 4 8 14 13 22 32 25 10 4 4 6 5 5 3 6 8 14 16 18 18
5 3 3 2 2 1 1 3 4 6 4 4 3 5 4 1 9 15 13 11 10 4 2 3 4 3 5 4 5 16 7 13 9 7 9 5 10 8 6 8 12 14 18 20 18

GFSSW_925_spd_264.txt.gz
Wind_Speed
18 19 20 20 20 21 21 21 22 22 22 23 22 22 21 20 20 12 7 9 3 5 15 6 0 3 4 3 3 3 5 3 6 6 4 6 5 1 1 5 2 5 2 12 23
19 20 21 22 23 22 22 22 22 23 23 24 23 22 19 17 17 11 7 7 9 4 12 10 4 4 2 3 1 4 4 10 6 6 5 7 6 9 5 5 3 5 8 28 26
21 23 23 24 24 24 24 23 24 23 24 24 22 21 14 11 5 6 6 8 13 13 9 8 6 3 3 2 3 4 6 5 6 7 5 9 6 5 7 5 8 12 14 18 23
22 24 26 25 25 25 25 24 24 24 25 24 21 16 7 4 1 1 7 9 15 16 9 8 4 4 4 4 3 4 6 6 4 6 6 11 9 6 7 6 9 15 17 15 16
23 26 27 27 26 26 26 25 24 25 25 22 17 8 2 1 8 6 8 4 17 16 9 5 4 5 5 4 4 3 3 6 7 7 3 11 9 6 7 1 15 16 16 15 12
24 27 28 28 28 27 27 26 26 26 23 17 9 3 2 3 2 8 1 12 11 12 7 7 7 6 4 3 4 8 4 4 3 3 4 7 3 7 6 9 16 19 15 14 13
26 28 29 30 28 28 28 28 26 23 17 8 3 6 2 12 2 5 3 2 6 11 5 7 5 3 4 1 2 2 2 3 4 5 4 9 2 7 7 11 17 15 14 11 10
29 30 32 31 29 28 30 23 17 9 3 2 9 4 7 4 5 12 9 8 5 8 8 4 6 1 1 1 5 1 4 2 1 3 3 4 11 6 11 15 15 12 10 8 8
32 34 33 32 30 31 22 14 5 7 5 10 5 2 8 4 7 5 13 6 5 7 7 2 4 1 4 4 5 6 1 2 2 4 5 3 3 6 10 12 10 9 10 10 7
35 37 35 34 31 23 15 4 3 5 5 2 0 2 5 2 4 10 5 8 3 5 3 3 4 3 4 5 2 1 3 2 1 7 6 6 5 5 14 12 13 13 13 12 14
38 39 37 33 28 11 14 2 5 3 1 5 4 5 5 8 6 2 0 7 3 7 2 2 4 3 6 5 3 2 2 2 4 7 5 13 10 11 11 12 13 14 14 16 19
39 39 39 32 18 6 8 5 5 1 8 9 11 8 18 5 5 2 4 4 3 3 2 5 2 8 3 5 3 3 2 5 3 5 8 4 13 4 15 18 21 19 19 16 14
40 37 38 28 8 5 4 6 7 5 1 8 5 4 5 9 6 6 5 3 4 4 3 6 6 5 3 2 2 4 4 5 6 1 2 5 3 3 5 4 7 12 13 12 18
40 37 36 22 2 9 1 10 19 6 4 7 5 4 3 3 2 8 10 6 2 8 7 5 4 4 3 4 7 4 7 6 4 5 4 5 4 6 4 8 8 12 12 12 12
41 38 29 12 6 1 7 17 9 3 4 11 7 1 2 1 5 2 4 4 8 5 6 8 5 3 3 5 7 9 3 2 3 4 3 3 3 4 8 13 18 19 16 12 10
38 35 19 6 5 7 16 14 2 5 2 7 5 7 9 5 7 3 3 4 3 5 2 6 2 5 6 5 6 3 3 5 4 3 1 6 6 4 11 25 24 13 17 16 14
36 25 9 3 4 13 15 3 5 5 5 8 5 8 4 7 8 8 2 4 4 2 4 4 5 4 4 1 2 4 6 4 4 3 5 2 4 8 17 10 22 23 17 17 17
36 14 5 8 13 12 4 5 4 1 3 4 5 8 5 8 6 9 4 3 4 3 2 2 12 4 1 7 6 3 7 5 4 3 6 3 6 6 4 9 5 8 14 14 16
35 10 5 13 9 11 5 5 3 0 5 5 7 6 6 7 2 7 6 4 3 2 2 1 5 3 5 2 4 2 2 5 5 3 1 3 5 4 4 4 4 9 16 16 18
21 8 7 15 7 6 5 4 3 3 5 3 3 3 4 6 8 8 3 5 8 5 3 3 3 3 5 2 3 6 6 2 2 2 4 4 4 5 5 9 6 10 15 16 16
7 3 13 11 4 5 4 3 3 2 4 3 4 3 3 3 3 4 6 2 6 7 6 4 2 6 1 2 5 3 2 2 4 5 5 3 6 9 13 15 17 14 13 17 18
6 2 15 6 4 1 1 3 4 4 6 4 4 3 2 2 2 4 5 2 10 5 4 3 2 3 6 5 4 2 5 5 4 7 3 4 6 5 11 11 13 14 13 14 14
2 3 9 7 2 2 4 3 2 6 4 4 3 4 4 3 3 2 4 3 9 8 5 6 2 3 9 5 5 5 2 5 3 1 5 5 6 3 4 8 13 9 9 11 13
3 4 4 5 2 3 3 3 5 6 3 4 3 4 4 2 1 4 4 4 12 3 10 1 2 6 6 6 2 6 5 6 6 1 6 7 6 5 7 9 8 8 11 14 15
4 0 2 4 4 3 1 1 3 4 4 7 3 4 1 2 2 1 3 6 8 4 5 3 4 3 5 6 5 6 11 8 2 7 7 21 8 10 14 14 16 9 10 12 14
2 2 4 1 2 1 3 1 1 5 1 2 3 6 1 2 3 3 4 2 6 5 4 4 4 4 5 10 10 13 14 11 5 5 9 15 11 9 5 6 6 12 14 15 17
3 2 3 3 3 2 1 1 1 3 1 5 3 3 4 2 5 9 10 9 10 5 2 2 3 1 5 3 5 8 10 14 5 4 4 9 9 8 7 9 12 14 16 18 18